カタログに戻る

STARLINK-32775

運用中通信VLEO
NORAD 62742·PAYLOAD·🇺🇸 United States

打ち上げ Jan 21, 2025 から Cape Canaveral Space Force Station

Loading…

次のパス (今後24時間)

TLE

最新Source: CelesTrak SupGP

元期: Sep 15, 2026, 03:09 UTC

1 62742C 25014H   26258.13173611  .00017810  00000+0  64519-3 0  2581
2 62742  43.0007 164.4673 0001564 278.6868 336.5816 15.27564177    17

AllMySatでSTARLINK-32775をリアルタイム追跡

Download on the App Store